EW1855 Weather Reports


time (UTC)temp
C
wind
direction
speed
KPH
gust
KPH
rain 1hr
cm
rain 24hr
cm
rain mn
cm
humidity
%
barometer
mb
20260502161523 8 285 1.6 6.4 0.00 0.00 0.00 49 1022.4
20260502151517 5 115 1.6 4.8 0.00 0.00 0.00 58 1022.8
20260502123007 -1 113 0.0 1.6 0.00 0.00 0.00 76 1022.5
20260502121601 -1 118 0.0 1.6 0.00 0.00 0.00 75 1022.7
20260502120109 0 300 0.0 1.6 0.00 0.00 0.00 73 1022.5
20260502114634 0 93 0.0 1.6 0.00 0.00 0.00 71 1022.4
20260502113056 0 79 1.6 3.2 0.00 0.00 0.00 74 1022.5
20260502111553 0 128 0.0 1.6 0.00 0.00 0.00 74 1022.4
20260502110050 0 214 0.0 1.6 0.00 0.00 0.00 73 1022.3
20260502104548 0 131 0.0 1.6 0.00 0.00 0.00 71 1022.4
20260502103045 0 155 0.0 1.6 0.00 0.00 0.00 67 1022.4
20260502101559 1 66 0.0 0.0 0.00 0.00 0.00 63 1022.3
20260502071521 3 65 3.2 6.4 0.00 0.00 0.00 58 1021.9
20260502070019 3 115 0.0 3.2 0.00 0.00 0.00 60 1021.9
20260502064533 3 266 0.0 4.8 0.00 0.00 0.00 58 1021.8
20260502063019 6 124 1.6 3.2 0.00 0.00 0.00 45 1021.5
20260502061510 6 107 1.6 3.2 0.00 0.00 0.00 46 1021.6
20260502060015 6 87 4.8 6.4 0.00 0.00 0.00 48 1021.5
20260502054508 5 103 1.6 4.8 0.00 0.00 0.00 51 1021.5
20260502053005 5 124 3.2 8.0 0.00 0.00 0.00 53 1021.4
20260502051508 7 46 0.0 6.4 0.00 0.00 0.00 44 1021.2
20260502050004 7 124 0.0 3.2 0.00 0.00 0.00 43 1021.2
20260502044505 7 28 4.8 9.7 0.00 0.00 0.00 46 1021.1
20260502043002 8 262 0.0 6.4 0.00 0.00 0.00 42 1021.1
20260502041501 8 48 0.0 11.3 0.00 0.00 0.00 39 1021.0
20260502040001 9 13 8.0 12.9 0.00 0.00 0.00 39 1020.7
20260502034600 9 52 9.7 14.5 0.00 0.00 0.00 37 1020.6
20260502033058 10 42 9.7 14.5 0.00 0.00 0.00 37 1020.4
20260502031558 10 53 4.8 12.9 0.00 0.00 0.00 36 1020.2
20260502024556 11 62 6.4 11.3 0.00 0.00 0.00 34 1019.6
20260502023104 11 32 0.0 4.8 0.00 0.00 0.00 31 1019.5
20260502021556 12 58 1.6 3.2 0.00 0.00 0.00 33 1019.4
20260502020055 14 6 1.6 3.2 0.00 0.00 0.00 27 1019.4
20260502014554 15 297 1.6 8.0 0.00 0.00 0.00 25 1019.4
20260502013057 16 293 3.2 12.9 0.00 0.00 0.00 24 1019.2
20260502011558 16 281 4.8 12.9 0.00 0.00 0.00 22 1019.2
20260502004551 16 290 3.2 8.0 0.00 0.00 0.00 22 1019.3
20260502003050 16 264 6.4 11.3 0.00 0.00 0.00 19 1019.3
20260502001549 16 210 8.0 11.3 0.00 0.00 0.00 19 1019.3
20260502000050 16 217 6.4 9.7 0.00 0.00 0.00 21 1019.4
20260501234547 16 153 8.0 16.1 0.00 0.00 0.00 19 1019.4
20260501233046 16 214 3.2 8.0 0.00 0.00 0.00 20 1019.4
20260501231543 15 235 11.3 19.3 0.00 0.00 0.00 21 1019.4
20260501230042 15 257 0.0 20.9 0.00 0.00 0.00 19 1019.6
20260501224542 15 273 6.4 16.1 0.00 0.00 0.00 23 1019.6
20260501223041 15 297 14.5 20.9 0.00 0.00 0.00 21 1019.7
20260501221538 15 291 6.4 20.9 0.00 0.00 0.00 21 1019.9
20260501220039 15 294 3.2 12.9 0.00 0.00 0.00 22 1020.0
20260501214535 15 293 11.3 22.5 0.00 0.00 0.00 26 1020.2
20260501213035 14 243 9.7 19.3 0.00 0.00 0.00 28 1020.4
20260501211530 14 236 3.2 16.1 0.00 0.00 0.00 26 1020.6
20260501210025 13 243 14.5 22.5 0.00 0.00 0.00 29 1020.8
20260501204539 13 262 14.5 24.1 0.00 0.00 0.00 29 1020.8
20260501203020 13 217 6.4 16.1 0.00 0.00 0.00 31 1021.0
20260501201519 13 219 8.0 16.1 0.00 0.00 0.00 31 1020.8
20260501200016 13 204 9.7 14.5 0.00 0.00 0.00 34 1021.0
20260501194513 12 152 9.7 14.5 0.00 0.00 0.00 38 1021.2
20260501193011 12 118 4.8 9.7 0.00 0.00 0.00 34 1021.3
20260501191513 11 281 4.8 14.5 0.00 0.00 0.00 38 1021.5
20260501190012 11 245 9.7 14.5 0.00 0.00 0.00 39 1021.7
20260501184505 11 291 0.0 12.9 0.00 0.00 0.00 41 1021.7
20260501183004 11 247 9.7 16.1 0.00 0.00 0.00 44 1021.9
20260501181501 10 199 4.8 11.3 0.00 0.00 0.00 43 1022.0
20260501180100 9 231 4.8 16.1 0.00 0.00 0.00 44 1022.2
20260501174558 10 207 3.2 11.3 0.00 0.00 0.00 45 1022.4
20260501173058 8 199 6.4 9.7 0.00 0.00 0.00 48 1022.5
20260501171600 8 259 3.2 8.0 0.00 0.00 0.00 48 1022.6
20260501170052 8 179 1.6 6.4 0.00 0.00 0.00 53 1022.7
20260501164551 7 270 3.2 8.0 0.00 0.00 0.00 58 1022.9
20260501163054 7 209 1.6 4.8 0.00 0.00 0.00 57 1022.9